Location: Julian California
(33.0790°N, 116.6010°W)
Time: 13:10:02
(UTC-07:00)

Cosmos 1697 Rocket - Pass Details

Date: 30 March 2019
Orbit: 834 x 842 km, 71.0° (Epoch: 22 April)

Event Time Altitude Azimuth Distance (km) Brightness Sun altitude
Rises 03:07:39 0° 357° (N) 3,386 6.3 -41.0°
Reaches altitude 10° 03:10:57 10° 16° (NNE) 2,447 5.6 -40.5°
Maximum altitude 03:14:38 18° 58° (ENE) 1,955 5.1 -39.9°
Drops below altitude 10° 03:18:18 10° 99° (E) 2,437 5.5 -39.3°
Sets 03:21:34 0° 118° (ESE) 3,366 6.1 -38.8°
